Bennettsville, SC

8:17 PM EDT on April 25, 2018 (GMT -0400)
Marlboro County-Avent

Weather History for KBBP - November, 2013

Change the Weather History Date:

Sunday, November 24, 2013

  Actual Average (KFLO) Record (KFLO)
Temperature  
Mean Temperature 37 °F -  
Max Temperature 46 °F 65 °F 83 °F (1973)
Min Temperature 28 °F 41 °F 19 °F (1970)
Degree Days  
Heating Degree Days 28    
Moisture  
Dew Point 17 °F    
Average Humidity 43    
Maximum Humidity 64    
Minimum Humidity 27    
Precipitation  
Precipitation 0.00 in - - ()
Sea Level Pressure  
Sea Level Pressure 30.40 in    
Wind  
Wind Speed 11 mph (North)    
Max Wind Speed 21 mph    
Max Gust Speed 29 mph    
Visibility 10 miles    
Events      
Averages and records for this station are not official NWS values.
T = Trace of Precipitation, MM = Missing Value Source: NWS Daily Summary

Daily Weather History Graph

Daily Weather History Graph

Search for Another Location

Airport or City:

Astronomy

Nov. 24, 2013 Rise Set
Actual Time 7:01 AM EST 5:09 PM EST
Civil Twilight 6:34 AM EST 5:36 PM EST
Nautical Twilight 6:03 AM EST 6:07 PM EST
Astronomical Twilight 5:33 AM EST 6:38 PM EST
Moon 11:25 PM EST (11/24) 11:55 AM EST (11/24)
Length of Visible Light 11h 02m
Length of Day
10h 08m
Waning Gibbous, 61% of the Moon is Illuminated
Nov 24
Waning Gibbous
Nov 25
Last Quarter
Dec 2
New
Dec 9
First Quarter
Dec 17
Full

Hourly Weather History & Observations

Time (EST) Temp. Windchill Dew Point Humidity Pressure Visibility Wind Dir Wind Speed Gust Speed Precip Events Conditions
12:15 AM 46.4 °F 40.7 °F 28.4 °F 50% 30.18 in 10.0 mi NNW 12.7 mph 16.1 mph N/A   Clear
12:35 AM 46.4 °F 41.5 °F 26.6 °F 46% 30.18 in 10.0 mi NNW 10.4 mph - N/A   Clear
12:55 AM 46.4 °F 41.5 °F 26.6 °F 46% 30.19 in 10.0 mi NNW 10.4 mph - N/A   Clear
1:15 AM 44.6 °F 39.7 °F 26.6 °F 49% 30.19 in 10.0 mi NNW 9.2 mph - N/A   Clear
1:35 AM 44.6 °F 39.7 °F 26.6 °F 49% 30.20 in 10.0 mi NNW 9.2 mph - N/A   Clear
1:55 AM 44.6 °F 38.4 °F 26.6 °F 49% 30.20 in 10.0 mi NNW 12.7 mph - N/A   Clear
2:15 AM 44.6 °F 38.8 °F 26.6 °F 49% 30.21 in 10.0 mi NNW 11.5 mph 17.3 mph N/A   Clear
2:35 AM 42.8 °F 35.1 °F 24.8 °F 49% 30.21 in 10.0 mi NNW 16.1 mph 19.6 mph N/A   Clear
2:55 AM 42.8 °F 37.0 °F 24.8 °F 49% 30.22 in 10.0 mi NNW 10.4 mph 19.6 mph N/A   Clear
3:15 AM 42.8 °F 36.2 °F 23.0 °F 46% 30.23 in 10.0 mi NNW 12.7 mph 19.6 mph N/A   Clear
3:35 AM 42.8 °F 36.2 °F 23.0 °F 46% 30.24 in 10.0 mi NNW 12.7 mph 18.4 mph N/A   Clear
3:55 AM 41.0 °F 33.9 °F 23.0 °F 49% 30.25 in 10.0 mi NNW 12.7 mph 20.7 mph N/A   Clear
4:15 AM 41.0 °F 34.7 °F 23.0 °F 49% 30.25 in 10.0 mi NNW 10.4 mph 17.3 mph N/A   Clear
4:35 AM 41.0 °F 31.6 °F 21.2 °F 45% 30.26 in 10.0 mi NNW 20.7 mph 28.8 mph N/A   Clear
4:55 AM 41.0 °F 33.9 °F 21.2 °F 45% 30.28 in 10.0 mi NNW 12.7 mph 17.3 mph N/A   Clear
5:15 AM 39.2 °F 32.5 °F 21.2 °F 49% 30.30 in 10.0 mi NNW 10.4 mph 17.3 mph N/A   Clear
5:35 AM 37.4 °F 29.8 °F 21.2 °F 52% 30.31 in 10.0 mi NNW 11.5 mph 17.3 mph N/A   Clear
5:55 AM 37.4 °F 32.1 °F 21.2 °F 52% 30.33 in 10.0 mi North 6.9 mph - N/A   Clear
6:15 AM 35.6 °F 29.2 °F 21.2 °F 56% 30.34 in 10.0 mi NNW 8.1 mph - N/A   Clear
6:35 AM 35.6 °F 29.2 °F 21.2 °F 56% 30.35 in 10.0 mi North 8.1 mph - N/A   Clear
6:55 AM 35.6 °F 29.9 °F 21.2 °F 56% 30.37 in 10.0 mi North 6.9 mph - N/A   Clear
7:15 AM 35.6 °F 28.0 °F 19.4 °F 52% 30.38 in 10.0 mi North 10.4 mph - N/A   Clear
7:35 AM 35.6 °F 27.5 °F 19.4 °F 52% 30.39 in 10.0 mi NNW 11.5 mph - N/A   Clear
7:55 AM 35.6 °F 27.5 °F 19.4 °F 52% 30.40 in 10.0 mi North 11.5 mph 20.7 mph N/A   Clear
8:15 AM 37.4 °F 29.3 °F 17.6 °F 45% 30.42 in 10.0 mi North 12.7 mph 21.9 mph N/A   Clear
8:35 AM 37.4 °F 29.3 °F 19.4 °F 48% 30.43 in 10.0 mi North 12.7 mph 17.3 mph N/A   Clear
8:55 AM 37.4 °F 27.8 °F 17.6 °F 45% 30.44 in 10.0 mi North 17.3 mph 24.2 mph N/A   Clear
9:15 AM 37.4 °F 28.2 °F 17.6 °F 45% 30.44 in 10.0 mi North 16.1 mph 23.0 mph N/A   Clear
9:35 AM 39.2 °F 30.2 °F 15.8 °F 39% 30.45 in 10.0 mi North 17.3 mph 23.0 mph N/A   Clear
9:55 AM 41.0 °F 33.9 °F 15.8 °F 36% 30.46 in 10.0 mi North 12.7 mph 20.7 mph N/A   Clear
10:15 AM 41.0 °F 32.8 °F 14.0 °F 33% 30.47 in 10.0 mi NNW 16.1 mph 24.2 mph N/A   Clear
10:35 AM 41.0 °F 33.9 °F 14.0 °F 33% 30.47 in 10.0 mi NNW 12.7 mph - N/A   Clear
10:55 AM 41.0 °F 32.8 °F 14.0 °F 33% 30.47 in 10.0 mi NW 16.1 mph 21.9 mph N/A   Clear
11:15 AM 41.0 °F 33.5 °F 14.0 °F 33% 30.46 in 10.0 mi NW 13.8 mph 24.2 mph N/A   Clear
11:35 AM 41.0 °F 33.1 °F 14.0 °F 33% 30.46 in 10.0 mi North 15.0 mph 20.7 mph N/A   Clear
11:55 AM 42.8 °F 35.8 °F 15.8 °F 34% 30.45 in 10.0 mi NNW 13.8 mph 20.7 mph N/A   Clear
12:15 PM 42.8 °F 36.6 °F 14.0 °F 31% 30.45 in 10.0 mi North 11.5 mph 24.2 mph N/A   Clear
12:35 PM 42.8 °F 35.8 °F 14.0 °F 31% 30.44 in 10.0 mi NNW 13.8 mph 20.7 mph N/A   Clear
12:55 PM 42.8 °F 35.1 °F 14.0 °F 31% 30.42 in 10.0 mi NNW 16.1 mph 24.2 mph N/A   Clear
1:15 PM 44.6 °F 38.4 °F 14.0 °F 29% 30.42 in 10.0 mi North 12.7 mph 18.4 mph N/A   Clear
1:35 PM 42.8 °F 36.2 °F 14.0 °F 31% 30.42 in 10.0 mi NNW 12.7 mph 17.3 mph N/A   Clear
1:55 PM 44.6 °F 39.2 °F 12.2 °F 27% 30.41 in 10.0 mi North 10.4 mph 19.6 mph N/A   Clear
2:15 PM 44.6 °F 37.4 °F 12.2 °F 27% 30.41 in 10.0 mi NNE 16.1 mph 19.6 mph N/A   Clear
2:35 PM 42.8 °F 37.5 °F 12.2 °F 29% 30.42 in 10.0 mi North 9.2 mph 16.1 mph N/A   Clear
2:55 PM 42.8 °F 36.6 °F 12.2 °F 29% 30.42 in 10.0 mi North 11.5 mph - N/A   Clear
3:15 PM 42.8 °F 36.6 °F 12.2 °F 29% 30.42 in 10.0 mi North 11.5 mph - N/A   Clear
3:35 PM 42.8 °F 37.0 °F 12.2 °F 29% 30.42 in 10.0 mi North 10.4 mph - N/A   Clear
3:55 PM 42.8 °F 38.0 °F 12.2 °F 29% 30.42 in 10.0 mi North 8.1 mph - N/A   Clear
4:15 PM 42.8 °F 38.0 °F 12.2 °F 29% 30.43 in 10.0 mi North 8.1 mph - N/A   Clear
4:35 PM 42.8 °F 38.0 °F 12.2 °F 29% 30.43 in 10.0 mi North 8.1 mph - N/A   Clear
4:55 PM 41.0 °F 36.4 °F 12.2 °F 31% 30.43 in 10.0 mi NNE 6.9 mph - N/A   Clear
5:15 PM 41.0 °F 36.4 °F 12.2 °F 31% 30.44 in 10.0 mi NNE 6.9 mph - N/A   Clear
5:35 PM 37.4 °F 32.8 °F 12.2 °F 36% 30.45 in 10.0 mi NNE 5.8 mph - N/A   Clear
5:55 PM 37.4 °F 33.8 °F 12.2 °F 36% 30.46 in 10.0 mi North 4.6 mph - N/A   Clear
6:15 PM 37.4 °F 32.1 °F 10.4 °F 33% 30.47 in 10.0 mi North 6.9 mph - N/A   Clear
6:35 PM 35.6 °F 30.7 °F 10.4 °F 35% 30.47 in 10.0 mi North 5.8 mph - N/A   Clear
6:55 PM 35.6 °F 32.8 °F 12.2 °F 38% 30.48 in 10.0 mi NNE 3.5 mph - N/A   Clear
7:15 PM 33.8 °F 29.6 °F 14.0 °F 44% 30.50 in 10.0 mi NNE 4.6 mph - N/A   Clear
7:35 PM 33.8 °F 29.6 °F 12.2 °F 41% 30.50 in 10.0 mi NNE 4.6 mph - N/A   Clear
7:55 PM 33.8 °F - 12.2 °F 41% 30.51 in 10.0 mi Calm Calm - N/A   Clear
8:15 PM 32.0 °F 28.7 °F 12.2 °F 44% 30.51 in 10.0 mi NNE 3.5 mph - N/A   Clear
8:35 PM 32.0 °F 28.7 °F 14.0 °F 48% 30.52 in 10.0 mi North 3.5 mph - N/A   Clear
8:55 PM 32.0 °F - 12.2 °F 44% 30.53 in 10.0 mi Calm Calm - N/A   Clear
9:15 PM 32.0 °F 28.7 °F 14.0 °F 48% 30.53 in 10.0 mi North 3.5 mph - N/A   Clear
9:35 PM 32.0 °F - 14.0 °F 48% 30.54 in 10.0 mi Calm Calm - N/A   Clear
9:55 PM 30.2 °F - 17.6 °F 60% 30.54 in 10.0 mi Calm Calm - N/A   Clear
10:15 PM 30.2 °F - 17.6 °F 60% 30.55 in 10.0 mi Calm Calm - N/A   Clear
10:35 PM 30.2 °F 26.7 °F 17.6 °F 60% 30.54 in 10.0 mi NNE 3.5 mph - N/A   Clear
10:55 PM 28.4 °F - 17.6 °F 64% 30.54 in 10.0 mi Calm Calm - N/A   Clear
11:15 PM 28.4 °F 24.6 °F 17.6 °F 64% 30.54 in 10.0 mi NNE 3.5 mph - N/A   Clear
11:35 PM 28.4 °F 22.2 °F 17.6 °F 64% 30.53 in 10.0 mi NNE 5.8 mph - N/A   Clear
11:55 PM 28.4 °F 22.2 °F 17.6 °F 64% 30.53 in 10.0 mi NNE 5.8 mph - N/A   Clear